Regional Weather Roundup
Issued by NWS

Current Version | Previous Version | Text Only | Print | Product List | Glossary On
Versions: 1 2 3 4 5 6 7 8 9 10 11 12 13 14 15 16 17 18 19 20 21 22 23 24 25 26 27 28 29 30 31 32 33 34 35 36 37 38 39 40 41 42 43 44 45 46 47 48 49 50
000
ASUS46 KSEW 312110
RWRWA

WASHINGTON REGIONAL WEATHER ROUNDUP
NATIONAL WEATHER SERVICE SEATTLE WA
200 PM PDT THU JUL 31 2014

NOTE:"FAIR" INDICATES FEW OR NO CLOUDS BELOW 12,000 FEET WITH NO
SIGNIFICANT WEATHER AND/OR OBSTRUCTIONS TO VISIBILITY.

WAZ505-507>509-312200-
SEATTLE, TACOMA, EVERETT, AND VICINITY

CITY           SKY/WX    TMP DP  RH WIND       PRES   REMARKS
EVERETT        FAIR      77  56  48 N10G17    30.10F
BOEING FIELD   FAIR      82  52  35 NW12G18   30.06F
RENTON         FAIR      83  57  41 NW13      30.05F
SEATAC AIRPORT FAIR      81  55  40 W7        30.09F
JBLM-MCCHORD   FAIR      82  55  38 N12       30.08F
PUYALLUP       FAIR      82  55  39 CALM      30.09S
JBLM-FT LEWIS  FAIR      83  53  35 NW9       30.07F
TACOMA NARROWS FAIR      81  50  33 N10G21    30.08F
$$

WAZ001-503-506-510-514-515-312200-
NORTH INTERIOR

CITY           SKY/WX    TMP DP  RH WIND       PRES   REMARKS
BELLINGHAM     FAIR      78  60  53 W6        30.08F
FRIDAY HARBOR  FAIR      78  56  46 SE7       30.10F
EASTSOUND      FAIR      70  59  68 N7        30.08F
PORT ANGELES   FAIR      74  51  44 NW7       30.12S
NAS WHIDBEY    FAIR      66  53  63 W9        30.10F
BURLINGTON     SUNNY     79  63  57 NW14      30.09F
$$

WAZ020-022-039-040-504-511-512-312200-
SOUTHWEST INTERIOR

CITY           SKY/WX    TMP DP  RH WIND       PRES   REMARKS
SHELTON        FAIR      86  51  29 S5        30.05F
OLYMPIA        FAIR      84  50  30 N9        30.07F
CHEHALIS       FAIR      86  57  37 NW9       30.06F
KELSO          FAIR      88  55  33 N12G17    30.05F
VANCOUVER      FAIR      84  55  36 NW7       30.00F
SCAPPOOSE, OR  FAIR      88  53  30 N14G25    30.00F
PORTLAND, OR   FAIR      86  57  37 NW8       30.00F
$$

WAZ021-516-517-312200-
WASHINGTON COAST

CITY           SKY/WX    TMP DP  RH WIND       PRES   REMARKS
FORKS          FAIR      76  54  46 N14       30.12S
HOQUIAM        FAIR      74  59  59 SW12      30.10S
ASTORIA, OR    FAIR      72  57  59 NW18      30.08F
$$

WAZ019-023-024-040-518-519-312200-
CASCADE MOUNTAINS AND COLUMBIA GORGE

CITY           SKY/WX    TMP DP  RH WIND       PRES   REMARKS
STAMPEDE PASS  NOT AVBL
TROUTDALE, OR  FAIR      84  56  38 VRB6      29.98F
THE DALLES, OR FAIR      96  53  23 NW12      29.91F HX  93
$$

WAZ026-027-041>044-520-521-312200-
EAST SLOPES

CITY           SKY/WX    TMP DP  RH WIND       PRES   REMARKS
OMAK           FAIR     101  22   6 CALM      29.97F HX  94
WENATCHEE      FAIR      98  32  10 E5        29.98F HX  92
ELLENSBURG     FAIR     100  38  11 E6        30.02F HX  95
YAKIMA         FAIR      96  39  13 SE6       29.99F HX  91
$$

WAZ028-034-035-312200-
COLUMBIA BASIN

CITY           SKY/WX    TMP DP  RH WIND       PRES   REMARKS
EPHRATA        FAIR      99  37  11 VRB7G16   29.98F HX  94
MOSES LAKE     FAIR      99  36  11 SW12      29.99F HX  93
PASCO          FAIR      96  55  25 N6        29.95F HX  94
HERMISTON, OR  FAIR      91  51  25 SE5       29.97S
$$

WAZ036>038-312200-
NORTHEAST WASHINGTON

CITY           SKY/WX    TMP DP  RH WIND       PRES   REMARKS
SPOKANE GEIGER FAIR      96  32  10 W6        30.04F HX  90
SPOKANE FELTS  FAIR      97  32  10 NW7       30.02F HX  91
FAIRCHILD AFB  FAIR      96  29   9 S6        30.05F HX  90
COEURDALENE,ID FAIR      93  48  21 SW5       30.02S HX  90
DEER PARK      FAIR      95  36  12 VRB3      30.04F HX  90
$$

WAZ029>033-312200-
SOUTHEAST WASHINGTON

CITY           SKY/WX    TMP DP  RH WIND       PRES   REMARKS
PULLMAN        FAIR      96  41  15 VRB7      30.07F HX  92
LEWISTON, ID   FAIR     103  37  10 N9        29.97F HX  97
WALLA WALLA    FAIR      91  50  24 S5        30.01F
PENDLETON, OR  FAIR      90  45  21 S7        30.02F
$$


USA.gov is the U.S. government's official web portal to all federal, state and local government web resources and services.